STARLINK-34194, 64179

Orbit data source: Space-Track

STARLINK-34194, 64179 is a payload satellite owned by SpaceX/Seattle (US) in LEO that was launched on Wed, 28 May 2025 UTC via an FALCON 9 launch vehicle from the Air Force Eastern Test Range (AFETR). Payload-class satellites include a variety of spacecraft equipped with specific instruments for various scientific and technological missions. These include communications satellites like Starlink; space stations such as the ISS; scientific satellites like the Hubble; Earth observation satellites from companies like Planet Labs, Umbra, and HawkEye 360; GPS; miniature CubeSats for education and research; and military/defense satellites.

Loading next visibility...
Identifier
64179, 2025-113K
Orbit
LEO
Country
Flag of USUS
Related business
Manufacturer
SpaceX/Seattle
Mission
Operational Commercial Communications
Bus & Motor
STARLINK V2MO, Unknown motor
Mass
575 kg wet, ~530 kg dry
Launch date (UTC)
2025-05-28 (1 year ago)
Launch vehicle
FALCON 9
Launch site
Air Force Eastern Test Range (AFETR)
Object type
Payload
Rocket body
Debris
Shape & HBR
Box + 2 Pan, 17.7 m
Radar Cross Section
36.964 m², Large (>1 m²)

Expand to show TLE details & history
Last TLE update: 1 day ago

TLE from 1 day ago
0 STARLINK-34194
1 64179U 25113K   26170.72599921  .00019942  00000-0  59967-3 0  9993
2 64179  53.1618 335.3226 0001193  65.1199 294.9927 15.34405321 60716
Epoch: 2026-06-19T17:25Z
TLE epoch observation values (Epoch: 2026-06-19T17:25:26.331Z)
Latitude
-0.00008°
Longitude
166.01198°
Altitude
463.244 km
Speed
7.636 km/s
True Right ascension
22h 21m 17s
True Declination
0° 00' 00"
Sunlit
Object was in partial shadow at epoch
Visualization orbit readout
Latitude
Unknown
Longitude
Unknown
Altitude
Unknown
Speed
Unknown
Apparent Right ascension
Unknown
Apparent Declination
Unknown
Sunlit
N/A
Visualization observer readout
Local Sidereal Time
07:16:16
Azimuth
Unknown
Elevation
Unknown
Doppler factor
Unknown
Orbital elements
Apogee altitude
463.76 km
Perigee altitude
462.128 km
Semi-major axis
6,841.081 km
Eccentricity
0.00012
Inclination
53.1618°
RAAN
335.3226°
Arg. of periapsis
65.1199°
True anomaly
294.98031°
Mean anomaly
294.9927°
Eccentric anomaly
294.9865°
Mean motion
3.8358 °/min
Orbital period
93.85 mins
BSTAR
0.00059967
Loading maneuver chart data...
Computing Atmospheric mass density...
Loading historical data...
Loading historical data...
Loading historical data...
Loading historical data...
Loading historical data...
Loading historical data...
Loading historical data...

Documentation

Showing up to 5 results
|